This is the latest recevied weather packets stored in our database for station/object KG4GJX. If no packets are shown the sender has not sent any weather packets the latest 10 day(s).
| Time | Temp. | Humidity | Pressure | Rain* | Wind** | Luminosity | Snow |
|---|---|---|---|---|---|---|---|
| 1777659191 | 20° C | 43% | 1013.8 hPa | 0 mm | - | - | - |
| 1777658529 | 20.56° C | 41% | 1013.8 hPa | 0 mm | - | - | - |
| 1777657866 | 21.11° C | 43% | 1014.2 hPa | 0 mm | - | - | - |
| 1777657204 | 20.56° C | 46% | 1013.8 hPa | 0 mm | - | - | - |
| 1777656541 | 20° C | 49% | 1013.8 hPa | 0 mm | - | - | - |
| 1777655879 | 19.44° C | 49% | 1014.2 hPa | 0 mm | - | - | - |
| 1777655216 | 20° C | 47% | 1014.2 hPa | 0 mm | - | - | - |
| 1777654554 | 20° C | 52% | 1014.2 hPa | 0 mm | - | - | - |
| 1777653891 | 20° C | 47% | 1014.2 hPa | 0 mm | - | - | - |
| 1777653229 | 20° C | 52% | 1014.2 hPa | 0 mm | - | - | - |
| 1777652567 | 19.44° C | 51% | 1014.5 hPa | 0 mm | - | - | - |
| 1777651904 | 18.89° C | 55% | 1014.5 hPa | 0 mm | - | - | - |
| 1777651242 | 19.44° C | 58% | 1014.9 hPa | 0 mm | - | - | - |
| 1777650580 | 19.44° C | 54% | 1014.9 hPa | 0 mm | - | - | - |
| 1777649917 | 18.89° C | 57% | 1014.5 hPa | 0 mm | - | - | - |
| 1777649255 | 17.78° C | 63% | 1014.9 hPa | 0 mm | - | - | - |
| 1777647930 | 17.22° C | 65% | 1014.9 hPa | 0 mm | - | - | - |
| 1777647268 | 16.67° C | 63% | 1014.9 hPa | 0 mm | - | - | - |
| 1777646606 | 16.11° C | 65% | 1014.9 hPa | 0 mm | - | - | - |
| 1777645943 | 16.11° C | 69% | 1014.9 hPa | 0 mm | - | - | - |
| 1777645281 | 15.56° C | 68% | 1014.5 hPa | 0 mm | - | - | - |
| 1777644618 | 15° C | 72% | 1014.5 hPa | 0 mm | - | - | - |
| 1777643956 | 14.44° C | 69% | 1014.5 hPa | 0 mm | - | - | - |
| 1777643293 | 14.44° C | 73% | 1014.2 hPa | 0 mm | - | - | - |
| 1777642631 | 13.89° C | 72% | 1014.2 hPa | 0 mm | - | - | - |
* Rain latest hour (hover to see other rain measurements)
** Current wind speed in m/s (hover to see current wind gust speed)